Wind_Speed
29 29 29 30 31 31 31 31 31 31 31 31 31 32 33 33 33 32 32 32 32 32 33 34 34 34 34 35 35 35 35 35 35 35 35 35 35 35 35 35 35 35 35
28 29 29 29 30 31 32 32 32 32 32 32 32 33 34 35 35 35 35 35 34 33 34 35 37 37 36 36 36 36 36 36 36 36 35 35 36 36 37 37 37 37 37
27 28 28 29 30 31 32 33 32 32 33 33 33 34 35 36 37 37 37 37 37 36 36 36 36 37 37 37 37 37 37 37 37 37 37 36 36 37 37 38 38 39 39
28 29 29 29 30 30 31 32 32 33 33 34 34 35 37 37 38 38 39 40 39 39 38 38 38 38 38 38 38 38 38 37 37 38 38 38 38 38 38 39 40 40 40
28 29 29 30 30 31 32 32 33 33 33 33 35 37 38 38 39 40 40 41 41 41 40 40 39 39 38 38 38 38 38 38 38 39 39 39 40 40 40 40 40 41 41
27 29 29 30 30 31 32 32 33 34 35 35 36 37 38 39 40 40 40 40 40 40 41 41 41 40 39 39 38 38 39 39 39 40 40 40 41 41 41 41 41 41 42
26 28 29 30 30 30 31 33 34 34 35 36 37 37 38 39 40 40 40 40 40 40 41 42 42 41 40 39 39 39 40 40 41 41 42 42 42 42 42 43 43 43 43
25 27 29 30 30 31 32 33 35 35 36 37 38 38 38 39 39 40 40 40 41 41 41 41 42 42 42 42 41 42 42 43 43 44 44 44 45 45 45 45 45 44 44
26 27 28 30 31 33 33 34 34 35 36 37 37 38 39 39 39 39 40 41 41 42 43 43 43 43 44 45 44 44 45 45 45 46 47 47 47 47 47 48 48 48 47
26 27 29 30 31 33 33 34 35 36 37 37 38 38 39 39 40 40 41 42 43 43 43 44 44 45 46 46 47 46 46 46 47 48 49 49 49 49 50 50 50 50 50
26 28 29 31 32 33 34 35 35 36 37 38 38 39 39 40 41 42 42 42 43 44 45 45 45 46 46 47 47 48 48 48 49 48 49 50 51 51 51 52 52 52 52
25 27 28 29 31 32 33 35 35 36 37 37 38 38 39 41 41 42 42 43 44 45 45 46 46 47 47 47 48 49 49 50 51 50 49 50 50 51 52 53 53 53 53
26 27 28 30 31 32 33 33 34 35 35 36 37 38 39 39 40 41 42 43 44 44 45 45 46 47 47 47 47 48 49 50 50 51 51 51 51 52 52 52 53 52 52
27 28 29 30 30 31 32 32 33 34 34 35 35 36 37 38 39 40 42 43 43 44 45 45 46 46 47 48 48 48 49 49 50 51 51 51 52 52 52 52 52 51 51
27 27 28 29 29 30 31 32 33 33 34 35 36 36 37 38 39 41 41 42 43 44 45 46 46 47 47 48 49 49 50 50 50 51 51 51 51 51 51 51 51 51 51
27 28 28 29 30 32 33 33 34 35 35 36 37 38 39 40 41 42 42 43 43 44 45 46 47 47 48 49 49 50 50 51 51 51 51 51 51 51 51 51 51 51 51
30 30 31 31 32 33 33 34 35 37 37 38 39 40 40 41 41 42 43 43 44 44 45 46 46 47 48 49 50 50 50 50 51 52 52 51 51 51 51 51 51 51 51
32 33 33 33 34 35 35 36 37 38 38 39 40 40 41 41 42 42 43 44 44 45 45 46 47 47 48 49 49 49 49 49 50 50 51 51 51 51 51 51 50 51 51
34 35 35 35 35 36 37 38 38 39 39 40 41 42 42 42 43 43 43 44 44 45 46 46 46 47 47 48 49 49 49 49 49 49 50 50 50 50 50 49 49 50 50
37 37 37 37 38 38 39 39 40 40 41 42 42 43 43 43 44 44 45 45 45 46 46 46 47 47 48 48 48 48 48 48 48 49 49 49 49 48 48 48 48 48 48
39 39 39 40 40 40 40 41 41 42 42 42 43 43 44 44 45 45 46 47 47 47 47 47 47 47 48 48 48 48 47 47 47 47 47 48 48 47 48 47 47 47 47
40 40 40 41 41 42 42 43 43 43 44 44 44 44 45 45 46 46 47 47 48 48 47 47 47 48 48 48 48 48 47 47 47 46 47 47 47 47 47 46 46 46 46
40 41 41 42 43 43 44 44 44 45 45 45 45 45 45 46 47 47 48 48 48 48 47 47 47 47 47 48 48 47 47 47 46 46 46 46 45 45 45 44 44 44 44
41 42 43 43 44 44 45 45 46 46 45 45 45 46 46 47 48 48 48 48 48 48 48 47 47 47 47 47 47 46 46 46 45 45 44 44 44 43 42 42 42 42 42
42 42 43 43 44 45 45 46 46 46 46 46 46 46 47 48 48 48 48 48 48 48 48 48 47 47 46 46 46 45 45 45 45 43 42 42 42 41 40 40 40 40 40
43 43 44 44 44 45 46 46 46 46 46 46 46 47 47 48 48 48 48 48 48 48 48 47 47 46 45 45 44 44 44 43 43 42 41 41 41 40 39 39 39 39 39
Wind_Direction
224 226 230 232 234 236 238 240 242 245 247 250 251 253 255 257 261 263 265 267 268 269 270 270 272 273 275 277 278 279 280 281 282 283 283 283 284 284 284 284 284 285 287
226 228 231 234 237 240 242 244 245 247 250 251 253 255 258 260 263 264 265 267 269 270 270 270 271 273 276 277 278 279 280 281 282 282 283 283 283 284 284 284 284 285 286
228 230 233 236 239 242 245 245 248 250 252 253 255 257 260 262 264 264 265 268 271 272 272 271 273 274 275 276 277 278 279 280 281 281 282 281 281 283 284 285 285 285 286
233 234 236 240 242 245 247 249 251 252 254 255 257 260 261 263 265 266 268 269 271 272 274 272 274 275 276 276 275 277 278 279 280 281 281 281 281 282 281 283 285 286 287
238 239 242 245 247 248 250 252 254 255 257 259 260 262 263 264 266 268 269 270 271 271 272 274 275 275 276 277 277 276 277 278 279 280 281 281 282 282 283 284 285 286 286
241 244 246 249 251 252 253 255 256 258 259 262 264 264 265 266 268 269 269 270 271 272 273 274 275 275 276 277 278 277 277 278 279 280 280 281 282 283 283 283 284 285 285
245 248 250 253 255 256 257 258 260 262 264 264 266 267 268 269 269 270 270 270 271 272 274 274 275 276 276 277 278 278 278 279 279 281 281 281 282 282 283 283 283 284 285
248 251 253 255 257 259 261 263 264 265 266 267 267 268 269 269 270 271 271 271 272 273 274 275 276 277 277 277 278 278 278 279 280 280 282 282 282 283 283 283 284 284 285
253 255 256 257 259 261 264 265 266 266 267 267 268 269 270 270 271 271 272 273 273 274 275 276 277 277 278 278 279 279 279 279 279 280 281 281 282 282 283 283 284 284 284
255 257 259 261 262 264 265 265 266 267 268 268 270 270 271 271 271 271 272 274 274 275 276 277 278 278 278 279 279 280 279 279 280 280 280 280 281 282 283 283 284 284 285
259 261 262 263 265 266 267 268 268 269 270 270 271 271 271 271 271 272 273 275 276 277 277 278 279 280 280 280 281 281 281 281 281 281 281 281 281 282 283 283 284 284 285
264 264 265 266 267 268 269 270 270 271 272 272 272 272 273 273 273 273 274 276 277 278 279 279 279 280 281 281 282 282 282 282 281 282 282 283 283 283 283 283 284 284 285
267 268 268 269 270 272 272 272 272 272 273 273 273 274 275 275 275 275 276 277 278 279 279 280 280 281 281 282 283 283 283 282 282 283 283 283 284 284 284 284 284 284 285
271 271 271 271 272 273 273 273 273 274 274 275 275 275 276 277 278 278 278 279 280 280 281 281 282 282 282 283 283 283 283 283 283 283 283 283 284 284 284 284 285 285 285
274 275 275 274 273 273 274 274 275 275 276 277 276 277 278 280 281 281 282 282 282 282 282 283 283 283 284 284 283 283 283 284 284 283 283 283 283 284 284 285 285 285 285
276 276 276 276 275 275 276 277 277 278 279 278 278 279 280 281 282 282 283 283 284 283 283 284 284 284 284 284 284 284 284 284 284 284 283 283 283 283 284 284 285 285 285
277 277 277 277 277 278 278 279 279 279 280 280 281 281 282 282 283 283 284 284 285 285 285 285 285 285 284 284 285 284 284 284 284 283 283 283 283 283 284 284 284 285 285
280 280 279 279 279 279 279 280 280 280 281 281 282 282 283 283 283 284 285 286 287 287 287 287 286 286 285 285 285 285 285 284 284 284 283 283 283 284 284 284 284 285 285
281 281 280 280 280 280 280 280 281 281 281 282 282 282 283 283 284 285 286 287 288 288 288 289 288 287 286 285 285 286 286 285 284 284 283 284 284 284 285 285 285 285 286
281 281 280 280 281 281 281 281 281 282 282 282 283 283 283 284 284 285 286 287 288 289 290 290 288 287 287 287 286 286 286 285 285 284 284 284 284 284 285 285 285 285 286
281 280 280 280 281 281 282 282 282 282 283 283 284 284 284 284 285 286 287 287 288 289 289 289 288 288 287 287 287 287 286 286 286 285 285 284 284 284 285 286 286 286 287
281 280 280 280 281 282 282 283 283 284 284 284 284 284 284 285 286 287 288 288 289 289 289 288 288 288 288 287 287 286 286 286 286 286 286 286 286 286 286 286 286 286 288
282 281 280 281 282 283 283 284 284 285 285 284 284 284 285 286 287 287 288 288 289 289 289 289 288 288 288 287 287 287 287 286 286 286 286 286 286 286 286 286 287 287 288
282 282 281 282 283 283 284 284 285 286 286 285 285 285 285 287 288 288 288 289 289 289 289 288 288 288 287 287 287 287 287 287 287 286 286 286 286 287 287 287 287 289 290
282 283 283 283 284 284 285 287 287 287 286 286 286 286 287 288 288 288 288 288 289 289 288 288 287 287 286 286 286 287 286 287 287 287 287 287 287 287 286 287 288 289 290
282 283 283 283 284 285 286 287 287 287 287 287 287 287 288 289 289 288 288 288 288 288 288 288 288 287 287 286 286 286 286 286 286 286 287 287 287 286 286 287 288 289 290
Height
5751 5755 5759 5762 5765 5768 5771 5773 5775 5777 5779 5781 5783 5784 5785 5787 5788 5788 5788 5789 5789 5789 5789 5789 5789 5789 5788 5788 5787 5786 5785 5784 5783 5782 5781 5780 5778 5777 5776 5775 5773 5772 5771
5748 5751 5754 5757 5760 5763 5766 5768 5770 5771 5773 5775 5776 5778 5779 5780 5781 5782 5782 5781 5781 5781 5781 5781 5781 5780 5780 5779 5779 5778 5777 5776 5775 5774 5773 5772 5771 5769 5768 5766 5765 5764 5762
5744 5747 5750 5753 5755 5758 5760 5762 5764 5766 5767 5768 5770 5771 5771 5772 5773 5774 5774 5774 5774 5773 5773 5773 5773 5772 5772 5771 5770 5769 5768 5767 5766 5765 5764 5763 5762 5761 5759 5757 5756 5754 5753
5741 5743 5746 5748 5751 5753 5755 5756 5758 5759 5761 5762 5763 5763 5764 5765 5765 5766 5766 5766 5766 5765 5765 5765 5764 5764 5763 5762 5761 5760 5760 5759 5758 5756 5755 5754 5753 5752 5751 5749 5747 5745 5743
5737 5739 5741 5743 5745 5747 5749 5750 5752 5753 5754 5755 5756 5756 5757 5757 5757 5758 5758 5758 5757 5757 5757 5756 5755 5755 5754 5753 5752 5751 5751 5749 5749 5747 5746 5744 5743 5742 5741 5740 5738 5735 5733
5733 5734 5736 5738 5740 5742 5743 5744 5745 5746 5747 5748 5749 5749 5749 5749 5749 5749 5749 5749 5748 5748 5748 5747 5747 5746 5745 5744 5743 5742 5741 5740 5739 5738 5736 5735 5734 5732 5731 5730 5728 5726 5723
5728 5730 5731 5733 5734 5735 5737 5738 5739 5739 5740 5741 5741 5741 5741 5741 5741 5740 5740 5740 5739 5739 5739 5738 5737 5737 5736 5735 5734 5733 5732 5731 5729 5728 5726 5725 5723 5722 5720 5719 5718 5716 5714
5723 5725 5726 5727 5728 5729 5730 5731 5731 5732 5732 5733 5733 5733 5732 5732 5732 5732 5731 5731 5730 5730 5729 5728 5728 5727 5726 5725 5724 5723 5722 5720 5719 5718 5716 5714 5713 5711 5709 5708 5706 5705 5703
5719 5720 5720 5721 5722 5723 5723 5724 5724 5724 5724 5724 5724 5724 5724 5723 5723 5723 5722 5722 5721 5720 5719 5718 5718 5717 5716 5715 5714 5713 5711 5710 5708 5706 5705 5703 5701 5699 5697 5696 5694 5693 5691
5713 5714 5714 5715 5715 5716 5716 5716 5716 5716 5716 5716 5715 5715 5715 5714 5714 5713 5713 5712 5711 5710 5709 5708 5707 5706 5705 5704 5703 5701 5700 5698 5696 5695 5693 5691 5689 5687 5685 5683 5681 5679 5678
5707 5708 5708 5708 5708 5708 5708 5708 5708 5708 5707 5707 5706 5706 5705 5705 5704 5704 5703 5702 5701 5700 5699 5698 5697 5695 5694 5693 5691 5689 5688 5686 5684 5682 5681 5679 5677 5675 5673 5670 5668 5666 5664
5701 5701 5701 5701 5701 5701 5701 5700 5700 5699 5698 5698 5697 5697 5696 5695 5694 5693 5693 5692 5690 5689 5688 5687 5685 5684 5682 5681 5679 5677 5675 5674 5672 5670 5668 5666 5664 5662 5659 5657 5655 5653 5650
5695 5695 5695 5695 5694 5694 5693 5692 5692 5691 5690 5689 5688 5687 5686 5685 5684 5683 5682 5681 5679 5678 5676 5675 5674 5672 5670 5668 5667 5665 5663 5661 5659 5657 5655 5653 5651 5648 5646 5644 5641 5639 5636
5689 5688 5687 5687 5686 5686 5685 5684 5683 5682 5681 5680 5679 5678 5677 5675 5674 5673 5671 5670 5668 5667 5665 5663 5662 5660 5658 5656 5654 5652 5650 5648 5645 5643 5641 5639 5637 5635 5632 5630 5627 5625 5622
5682 5681 5680 5679 5678 5677 5677 5676 5675 5673 5672 5671 5670 5668 5667 5666 5664 5662 5661 5659 5657 5655 5653 5652 5650 5648 5646 5643 5641 5639 5637 5634 5632 5630 5628 5625 5623 5621 5618 5616 5614 5611 5608
5675 5673 5672 5671 5670 5669 5668 5667 5666 5664 5663 5662 5660 5659 5657 5655 5654 5652 5650 5648 5646 5644 5642 5640 5637 5635 5633 5630 5628 5626 5623 5621 5619 5616 5614 5612 5609 5607 5604 5602 5600 5597 5595
5667 5665 5664 5663 5662 5660 5659 5658 5656 5655 5654 5652 5650 5649 5647 5645 5643 5641 5639 5636 5634 5632 5630 5627 5625 5622 5619 5617 5614 5612 5610 5607 5605 5602 5600 5598 5595 5593 5590 5588 5585 5583 5580
5658 5657 5655 5654 5652 5651 5650 5648 5647 5645 5643 5641 5640 5638 5636 5634 5632 5629 5627 5625 5622 5620 5617 5615 5612 5609 5606 5603 5601 5598 5596 5594 5591 5588 5586 5584 5581 5579 5576 5574 5571 5569 5566
5648 5647 5645 5644 5642 5641 5639 5638 5636 5634 5633 5631 5629 5627 5624 5622 5620 5618 5615 5613 5610 5608 5605 5602 5599 5596 5593 5590 5587 5585 5583 5580 5577 5574 5572 5570 5567 5565 5563 5561 5558 5555 5552
5638 5636 5635 5633 5632 5630 5628 5627 5625 5623 5621 5619 5617 5615 5612 5610 5608 5605 5603 5600 5598 5595 5592 5589 5586 5583 5580 5577 5574 5571 5569 5567 5564 5561 5558 5556 5553 5551 5548 5546 5544 5541 5538
5627 5625 5624 5622 5621 5619 5617 5615 5613 5612 5610 5607 5605 5602 5600 5598 5595 5593 5590 5587 5585 5582 5579 5576 5573 5570 5567 5564 5561 5558 5555 5553 5550 5547 5545 5542 5540 5537 5535 5532 5530 5528 5525
5616 5614 5613 5611 5609 5607 5606 5604 5601 5599 5597 5595 5592 5590 5587 5585 5582 5580 5577 5574 5571 5568 5565 5562 5559 5556 5553 5550 5547 5544 5542 5540 5537 5534 5532 5529 5527 5524 5522 5519 5517 5514 5512
5604 5603 5601 5599 5597 5595 5593 5591 5589 5587 5584 5582 5579 5577 5574 5572 5569 5566 5563 5560 5557 5555 5552 5549 5546 5543 5540 5537 5534 5531 5529 5526 5524 5521 5519 5516 5514 5511 5509 5507 5504 5502 5499
5592 5590 5589 5587 5585 5583 5580 5578 5576 5574 5571 5569 5566 5564 5561 5559 5556 5553 5550 5547 5544 5541 5538 5535 5533 5530 5527 5524 5521 5518 5516 5513 5511 5508 5506 5503 5501 5499 5497 5494 5492 5490 5488
5580 5578 5576 5575 5573 5570 5568 5565 5563 5561 5558 5556 5553 5550 5548 5545 5542 5539 5536 5533 5530 5527 5524 5522 5519 5516 5514 5510 5507 5505 5503 5500 5498 5496 5493 5491 5489 5487 5485 5483 5481 5479 5476
5568 5566 5564 5562 5560 5558 5555 5553 5550 5547 5545 5542 5539 5537 5534 5531 5528 5525 5523 5519 5516 5513 5510 5507 5505 5502 5500 5497 5495 5492 5490 5487 5485 5483 5481 5479 5477 5475 5473 5472 5470 5468 5465